Volver al catálogo

CZ-6A DEB

ActivoSSO
NORAD 54390·DEBRIS·🇨🇳 China

Lanzado Nov 11, 2022 desde Taiyuan Satellite Launch Center

Loading…

Próximos Pases (próximas 24 horas)

TLE

ActualizadoSource: Space-Track

Época: Sep 14, 2026, 03:25 UTC

1 54390U 22151DN  26257.14303883  .00000413  00000-0  32498-3 0  9991
2 54390  98.9773 231.2078 0125568 193.9415 165.8268 13.93678058194570

Sigue CZ-6A DEB en tiempo real con AllMySat

Download on the App Store